K4FB Weather Reports


Display with metric or nautical units.
time (UTC)temp
F
wind
direction
speed
MPH
gust
MPH
rain 1hr
in
rain 24hr
in
rain mn
in
humidity
%
barometer
mb
20260905091507 75 178 0.0 0.0 0.00 0.00 0.00 93 1014.9
20260905091007 75 178 0.0 0.0 0.00 0.00 0.00 93 1014.8
20260905090507 75 178 0.0 0.0 0.00 0.00 0.00 93 1014.9
20260905090003 75 178 0.0 0.0 0.00 0.00 0.00 93 1014.9
20260905085504 75 178 0.0 0.0 0.00 0.00 0.00 93 1014.8
20260905085008 75 178 0.0 0.0 0.00 0.00 0.00 93 1014.7
20260905084526 75 178 0.0 0.0 0.00 0.00 0.00 93 1014.9
20260905084004 75 178 0.0 0.0 0.00 0.00 0.00 93 1015.0
20260905083505 75 178 0.0 0.0 0.00 0.00 0.00 93 1014.9
20260905083004 75 178 0.0 0.0 0.00 0.00 0.00 93 1014.9
20260905082502 75 178 0.0 0.0 0.00 0.00 0.00 93 1014.9
20260905082004 75 179 0.0 0.0 0.00 0.00 0.00 93 1015.0
20260905081508 75 179 0.0 0.0 0.00 0.00 0.00 93 1015.0
20260905081003 76 182 0.0 0.0 0.00 0.00 0.00 92 1015.0
20260905080504 76 182 0.0 0.0 0.00 0.00 0.00 92 1014.9
20260905080013 76 182 0.0 0.0 0.00 0.00 0.00 92 1014.9
20260905075508 76 182 0.0 0.0 0.00 0.00 0.00 92 1014.8
20260905075006 76 182 0.0 0.0 0.00 0.00 0.00 93 1015.0
20260905074511 76 182 0.0 0.0 0.00 0.00 0.00 92 1015.0
20260905074006 76 182 0.0 0.0 0.00 0.00 0.00 92 1014.9
20260905073509 76 182 0.0 0.0 0.00 0.00 0.00 92 1014.8
20260905073009 76 182 0.0 0.0 0.00 0.00 0.00 92 1014.8
20260905072504 76 182 0.0 0.0 0.00 0.00 0.00 92 1014.8
20260905072011 76 182 0.0 0.0 0.00 0.00 0.00 92 1014.8
20260905071507 76 182 0.0 0.0 0.00 0.00 0.00 92 1014.7
20260905071006 76 182 0.0 0.0 0.00 0.00 0.00 92 1014.7
20260905070503 76 182 0.0 0.0 0.00 0.00 0.00 92 1014.9
20260905070014 76 182 0.0 0.0 0.00 0.00 0.00 92 1014.9
20260905065503 76 182 0.0 0.0 0.00 0.00 0.00 92 1014.9
20260905065004 76 182 0.0 0.0 0.00 0.00 0.00 92 1014.9
20260905064517 76 182 0.0 0.0 0.00 0.00 0.00 91 1015.0
20260905064008 76 182 0.0 0.0 0.00 0.00 0.00 91 1015.1
20260905063508 76 182 0.0 0.0 0.00 0.00 0.00 91 1015.1
20260905063018 76 182 0.0 0.0 0.00 0.00 0.00 91 1015.1
20260905062511 76 182 0.0 0.0 0.00 0.00 0.00 91 1015.1
20260905062003 76 182 0.0 0.0 0.00 0.00 0.00 91 1015.0
20260905061516 77 182 0.0 0.0 0.00 0.00 0.00 91 1015.2
20260905061009 77 182 0.0 0.0 0.00 0.00 0.00 91 1015.2
20260905060503 77 182 0.0 0.0 0.00 0.00 0.00 91 1015.3
20260905060008 77 182 0.0 0.0 0.00 0.00 0.00 91 1015.4
20260905055502 77 175 0.0 0.0 0.00 0.00 0.00 1015.4
20260905055004 77 175 0.0 0.0 0.00 0.00 0.00 91 1015.5
20260905054517 77 175 0.0 0.0 0.00 0.00 0.00 91 1015.6
20260905054009 77 175 0.0 0.0 0.00 0.00 0.00 90 1015.6
20260905053508 77 175 0.0 0.0 0.00 0.00 0.00 90 1015.6
20260905053020 77 175 0.0 0.0 0.00 0.00 0.00 90 1015.6
20260905052502 77 175 0.0 0.0 0.00 0.00 0.00 90 1015.7
20260905052008 77 175 0.0 0.0 0.00 0.00 0.00 90 1015.8
20260905051531 77 175 0.0 0.0 0.00 0.00 0.00 90 1015.8
20260905051013 77 175 0.0 0.0 0.00 0.00 0.00 90 1015.9
20260905050503 78 175 0.0 0.0 0.00 0.01 0.00 90 1015.9
20260905050022 78 175 0.0 0.0 0.00 0.01 0.00 90 1015.9
20260905045517 78 175 0.0 0.0 0.00 0.01 0.00 90 1016.1
20260905045003 78 175 0.0 0.0 0.00 0.01 0.00 90 1016.1
20260905044509 78 175 0.0 0.0 0.00 0.01 0.00 89 1016.1
20260905044006 78 175 0.0 0.0 0.00 0.01 0.00 89 1016.1
20260905043504 78 175 0.0 0.0 0.00 0.01 0.00 89 1016.1
20260905043014 78 175 0.0 0.0 0.00 0.01 0.00 89 1016.1
20260905042509 78 175 0.0 0.0 0.00 0.01 0.00 89 1016.1
20260905042007 78 175 0.0 0.0 0.00 0.01 0.00 88 1016.1
20260905041512 78 175 0.0 0.0 0.00 0.01 0.00 88 1016.1
20260905041006 78 175 0.0 0.0 0.00 0.01 0.00 88 1016.2
20260905040512 79 175 0.0 0.0 0.00 0.01 0.00 88 1016.2
20260905040034 79 175 0.0 0.0 0.00 0.01 0.00 89 1016.2
20260905035504 79 175 0.0 0.0 0.00 0.01 0.01 89 1016.2
20260905035008 79 175 0.0 0.0 0.00 0.01 0.01 88 1016.3
20260905034533 79 175 0.0 0.0 0.00 0.01 0.01 88 1016.3
20260905034013 79 176 0.0 0.0 0.00 0.01 0.01 88 1016.2
20260905033503 79 176 0.0 1.0 0.00 0.01 0.01 88 1016.4
20260905033016 79 197 0.0 1.0 0.00 0.01 0.01 88 1016.4
20260905032505 79 196 0.0 0.0 0.00 0.01 0.01 87 1016.4
20260905032005 80 197 0.0 0.0 0.00 0.01 0.01 87 1016.5
20260905031531 80 197 0.0 0.0 0.00 0.01 0.01 87 1016.5
20260905031011 80 197 0.0 0.0 0.00 0.01 0.01 86 1016.5
20260905030511 80 197 0.0 0.0 0.00 0.01 0.01 86 1016.6
20260905030021 80 197 0.0 0.0 0.00 0.01 0.01 86 1016.6
20260905025512 80 197 0.0 0.0 0.00 0.01 0.01 86 1016.6
20260905025014 80 197 0.0 0.0 0.00 0.01 0.01 85 1016.5
20260905024517 80 197 0.0 0.0 0.00 0.01 0.01 85 1016.5
20260905024007 80 197 0.0 0.0 0.00 0.01 0.01 86 1016.5
20260905023512 80 197 0.0 0.0 0.00 0.01 0.01 85 1016.4
20260905023034 81 197 0.0 0.0 0.00 0.01 0.01 85 1016.3
20260905022506 81 196 0.0 0.0 0.00 0.01 0.01 85 1016.3
20260905022010 81 197 0.0 0.0 0.00 0.01 0.01 85 1016.4
20260905021517 81 197 0.0 0.0 0.00 0.01 0.01 85 1016.3
20260905021007 81 197 0.0 0.0 0.00 0.01 0.01 84 1016.2
20260905020510 81 197 0.0 0.0 0.00 0.01 0.01 84 1016.3
20260905020030 81 197 0.0 0.0 0.00 0.01 0.01 83 1016.3
20260905015512 81 197 0.0 0.0 0.00 0.01 0.01 83 1016.2
20260905015008 81 197 0.0 0.0 0.00 0.01 0.01 82 1016.1
20260905014529 81 197 0.0 0.0 0.00 0.01 0.01 82 1016.1
20260905014014 81 197 0.0 0.0 0.00 0.01 0.01 81 1016.1
20260905013503 81 197 0.0 0.0 0.00 0.01 0.01 81 1016.0
20260905013023 81 197 0.0 0.0 0.00 0.01 0.01 80 1015.9
20260905012513 82 197 0.0 0.0 0.00 0.01 0.01 80 1016.0
20260905012015 82 197 0.0 0.0 0.00 0.01 0.01 80 1015.9
20260905011517 82 197 0.0 0.0 0.00 0.01 0.01 80 1015.9
20260905011004 82 177 0.0 0.0 0.00 0.01 0.01 80 1015.7
20260905010508 82 177 0.0 0.0 0.00 0.01 0.01 79 1015.8
20260905010013 83 177 0.0 0.0 0.00 0.01 0.01 79 1015.9
20260905005510 83 177 0.0 1.0 0.00 0.01 0.01 79 1015.8
20260905005012 84 153 0.0 4.0 0.00 0.01 0.01 79 1015.8
20260905004514 84 141 0.0 4.0 0.00 0.01 0.01 78 1016.0
20260905004007 84 111 0.0 3.0 0.00 0.01 0.01 78 1016.2
20260905003514 85 71 0.0 1.0 0.00 0.01 0.01 77 1016.4
20260905003015 85 32 0.0 0.0 0.00 0.01 0.01 76 1016.5
20260905002502 85 203 0.0 1.0 0.00 0.01 0.01 75 1016.5
20260905002004 86 202 0.0 2.0 0.00 0.01 0.01 75 1016.6
20260905001510 86 234 0.0 2.0 0.00 0.01 0.01 75 1016.5
20260905001004 86 208 0.0 2.0 0.00 0.01 0.01 76 1016.2
20260905000509 86 298 0.0 1.0 0.00 0.01 0.01 75 1016.1
20260905000026 87 292 0.0 1.0 0.00 0.01 0.01 74 1016.2
20260904235507 87 319 0.0 6.0 0.00 0.01 0.01 74 1016.1
20260904235004 87 290 0.0 6.0 0.00 0.01 0.01 73 1016.1
20260904234519 87 269 0.0 3.0 0.00 0.01 0.01 73 1015.8
20260904234012 87 280 0.0 2.0 0.00 0.01 0.01 73 1015.7
20260904233503 88 321 0.0 2.0 0.00 0.01 0.01 73 1015.4
20260904233016 88 245 0.0 3.0 0.00 0.01 0.01 73 1015.7
20260904232510 88 279 0.0 3.0 0.00 0.02 0.01 72 1015.5
20260904232015 88 306 0.0 3.0 0.00 0.02 0.01 71 1015.6
20260904231513 89 314 0.0 3.0 0.00 0.02 0.01 71 1015.6
20260904231005 89 239 0.0 3.0 0.00 0.02 0.01 70 1015.6
20260904230505 89 241 0.0 4.0 0.00 0.02 0.01 70 1015.5
20260904230025 90 281 0.0 4.0 0.00 0.02 0.01 69 1015.3
20260904225508 90 267 0.0 3.0 0.00 0.02 0.01 70 1015.3
20260904225006 91 259 0.0 1.0 0.00 0.03 0.01 69 1015.2
20260904224519 91 275 0.0 2.0 0.00 0.03 0.01 68 1015.2
20260904224007 92 281 0.0 2.0 0.00 0.04 0.01 67 1015.1
20260904223509 92 222 0.0 4.0 0.00 0.04 0.01 67 1015.2
20260904223031 93 219 1.0 7.0 0.00 0.04 0.01 66 1015.2
20260904222503 94 232 0.0 7.0 0.00 0.04 0.01 66 1015.1
20260904222008 94 247 0.0 4.0 0.00 0.04 0.01 66 1015.0
20260904221527 94 239 0.0 4.0 0.00 0.04 0.01 65 1014.8
20260904221015 94 221 0.0 5.0 0.00 0.04 0.01 64 1014.5
20260904220504 94 235 2.0 7.0 0.00 0.04 0.01 66 1014.3
20260904220011 94 184 1.0 7.0 0.00 0.04 0.01 66 1014.3
20260904215506 94 240 1.0 5.0 0.00 0.12 0.01 67 1014.3
20260904215003 93 194 0.0 6.0 0.00 0.34 0.01 68 1014.3
20260904214516 93 242 1.0 9.0 0.00 0.44 0.01 67 1014.6
20260904214009 93 263 4.0 10.0 0.00 0.60 0.01 66 1014.8
20260904213512 93 227 4.0 10.0 0.00 0.73 0.01 66 1014.9
20260904213019 94 175 2.0 10.0 0.00 0.91 0.01 67 1015.0
20260904212509 94 223 1.0 10.0 0.00 1.13 0.01 66 1014.9
20260904212010 94 223 5.0 10.0 0.00 1.44 0.01 66 1014.9
20260904211529 94 209 4.0 9.0 0.00 1.65 0.01 66 1015.0
20260904211006 94 206 3.0 8.0 0.00 1.66 0.01 68 1015.0
20260904210510 93 242 3.0 8.0 0.00 1.66 0.01 68 1015.0
20260904210033 93 248 2.0 9.0 0.00 1.66 0.01 70 1015.1
20260904205509 92 227 5.0 9.0 0.00 1.66 0.01 71 1014.9
20260904205004 91 238 1.0 10.0 0.00 1.66 0.01 73 1014.7
20260904204515 90 246 4.0 10.0 0.00 1.66 0.01 73 1014.7
20260904204008 90 233 2.0 11.0 0.00 1.66 0.01 73 1014.8
20260904203508 89 236 4.0 11.0 0.00 1.66 0.01 71 1014.9
20260904203019 88 204 2.0 7.0 0.00 1.66 0.01 72 1014.9
20260904202510 87 201 2.0 7.0 0.00 1.66 0.01 72 1014.8
20260904202006 87 212 2.0 8.0 0.00 1.66 0.01 73 1014.9
20260904201524 87 236 1.0 9.0 0.00 1.66 0.01 72 1014.8
20260904201014 87 226 2.0 9.0 0.00 1.66 0.01 72 1014.7
20260904200513 87 223 1.0 10.0 0.00 1.66 0.01 72 1014.7
20260904200038 87 234 4.0 10.0 0.00 1.66 0.01 70 1014.8
20260904195510 88 230 6.0 10.0 0.00 1.66 0.01 71 1014.9
20260904195016 88 228 4.0 10.0 0.00 1.66 0.01 73 1015.1
20260904194514 89 248 5.0 11.0 0.00 1.66 0.01 73 1015.1
20260904194010 90 223 3.0 11.0 0.00 1.66 0.01 72 1015.1
20260904193507 91 236 4.0 14.0 0.00 1.66 0.01 70 1015.1
20260904193020 93 253 8.0 17.0 0.00 1.66 0.01 68 1015.3
20260904192510 94 251 8.0 21.0 0.00 1.66 0.01 69 1015.2
20260904192010 95 214 14.0 21.0 0.00 1.66 0.01 69 1015.2
20260904191523 95 239 2.0 10.0 0.00 1.66 0.01 70 1015.2
20260904191012 95 245 3.0 10.0 0.00 1.66 0.01 70 1015.4
20260904190508 95 244 3.0 9.0 0.00 1.66 0.01 71 1015.8
20260904190029 95 304 2.0 7.0 0.00 1.66 0.01 71 1015.8
20260904185515 94 264 1.0 7.0 0.00 1.66 0.01 72 1015.9
20260904185007 93 203 1.0 7.0 0.00 1.66 0.01 73 1015.9
20260904184542 92 175 0.0 8.0 0.00 1.66 0.01 74 1016.1
20260904184015 91 168 2.0 9.0 0.00 1.66 0.01 76 1016.2
20260904183515 90 200 5.0 10.0 0.00 1.66 0.01 75 1016.1
20260904183024 89 180 5.0 10.0 0.00 1.66 0.01 77 1016.1
20260904182507 89 184 3.0 8.0 0.00 1.66 0.01 77 1016.2
20260904182010 89 194 2.0 9.0 0.00 1.66 0.01 75 1016.1
20260904181525 89 211 1.0 9.0 0.00 1.66 0.01 74 1016.1
20260904181012 90 158 2.0 17.0 0.00 1.66 0.01 73 1016.2
20260904180510 92 196 8.0 17.0 0.00 1.66 0.01 70 1016.3
20260904180028 94 221 7.0 13.0 0.00 1.66 0.01 68 1016.2
20260904175511 95 173 3.0 9.0 0.00 1.66 0.01 70 1016.2
20260904175015 95 205 3.0 10.0 0.00 1.66 0.01 70 1016.2
20260904174603 95 186 3.0 10.0 0.00 1.66 0.01 72 1016.3
20260904174007 94 178 2.0 9.0 0.00 1.66 0.01 74 1016.4
20260904173509 94 196 2.0 8.0 0.00 1.66 0.01 71 1016.4
20260904173032 94 107 1.0 8.0 0.00 1.66 0.01 75 1016.4
20260904172517 93 150 1.0 7.0 0.00 1.66 0.01 75 1016.6
20260904172010 93 192 0.0 9.0 0.00 1.66 0.01 73 1016.6
20260904171530 93 190 4.0 10.0 0.00 1.66 0.01 72 1016.5
20260904171011 93 162 2.0 10.0 0.00 1.66 0.01 75 1016.7
20260904170508 93 222 5.0 13.0 0.00 1.66 0.01 75 1016.8
20260904170040 93 177 5.0 13.0 0.00 1.66 0.01 75 1016.7
20260904165511 93 165 6.0 11.0 0.00 1.66 0.01 75 1016.7
20260904165013 93 216 2.0 9.0 0.00 1.66 0.01 76 1016.8
20260904164524 93 200 3.0 9.0 0.00 1.66 0.01 77 1016.9
20260904164012 92 193 3.0 8.0 0.00 1.66 0.01 76 1017.0
20260904163516 92 194 3.0 7.0 0.00 1.66 0.01 78 1017.1
20260904163042 91 202 3.0 7.0 0.00 1.66 0.01 79 1017.2
20260904162513 90 143 0.0 6.0 0.00 1.66 0.01 79 1017.1
20260904162016 90 182 1.0 8.0 0.00 1.66 0.01 80 1017.2
20260904161532 90 198 3.0 10.0 0.00 1.66 0.01 77 1017.3
20260904161009 90 229 4.0 10.0 0.00 1.66 0.01 81 1017.4
20260904160513 90 183 3.0 8.0 0.00 1.66 0.01 78 1017.5
20260904160008 90 192 1.0 9.0 0.00 1.66 0.01 81 1017.4
20260904155507 90 213 3.0 9.0 0.00 1.66 0.01 82 1017.4
20260904155009 89 224 4.0 8.0 0.00 1.66 0.01 83 1017.4
20260904154503 89 203 2.0 13.0 0.00 1.66 0.01 84 1017.5
20260904154003 88 199 6.0 13.0 0.00 1.66 0.01 83 1017.5
20260904153504 88 190 1.0 7.0 0.00 1.66 0.01 86 1017.6
20260904153009 87 204 2.0 7.0 0.00 1.66 0.01 83 1017.4
20260904152502 87 191 1.0 7.0 0.00 1.66 0.01 85 1017.5
20260904152004 87 191 2.0 8.0 0.00 1.66 0.01 85 1017.4
20260904151513 86 165 2.0 8.0 0.00 1.66 0.01 86 1017.4
20260904151004 86 190 0.0 4.0 0.00 1.66 0.01 87 1017.3
20260904150503 85 187 0.0 8.0 0.00 1.66 0.01 87 1017.4
20260904150018 85 189 0.0 8.0 0.00 1.66 0.01 87 1017.3
20260904145504 85 219 1.0 7.0 0.00 1.66 0.01 89 1017.3
20260904145004 85 218 0.0 4.0 0.00 1.66 0.01 89 1017.3
20260904144517 85 193 0.0 4.0 0.00 1.66 0.01 91 1017.1
20260904144010 84 188 0.0 1.0 0.00 1.66 0.01 90 1017.2
20260904143504 84 185 0.0 1.0 0.00 1.66 0.01 92 1017.1
20260904143008 83 187 0.0 3.0 0.00 1.66 0.01 93 1017.2
20260904142504 83 192 0.0 3.0 0.00 1.66 0.01 93 1017.2
20260904142005 82 223 0.0 6.0 0.00 1.66 0.01 93 1017.2
20260904141508 82 206 0.0 6.0 0.00 1.66 0.01 94 1016.9
20260904141003 82 221 0.0 1.0 0.00 1.66 0.01 96 1017.0
20260904140505 81 200 0.0 1.0 0.00 1.66 0.01 95 1016.9
20260904140009 81 171 0.0 1.0 0.00 1.66 0.01 96 1016.8
20260904135504 81 171 0.0 1.0 0.00 1.66 0.01 96 1016.7
20260904135011 81 171 0.0 1.0 0.00 1.66 0.01 96 1016.8
20260904134520 81 163 0.0 1.0 0.00 1.66 0.01 96 1016.8
20260904134005 80 163 0.0 1.0 0.00 1.66 0.01 96 1016.9
20260904133509 80 175 0.0 2.0 0.00 1.66 0.01 96 1016.8
20260904133028 80 191 0.0 2.0 0.00 1.66 0.01 96 1016.9
20260904132505 79 192 0.0 1.0 0.00 1.66 0.01 96 1016.8
20260904132003 79 165 0.0 1.0 0.00 1.66 0.01 96 1017.0
20260904131507 79 167 0.0 1.0 0.00 1.66 0.01 96 1016.7
20260904131003 79 200 0.0 1.0 0.00 1.66 0.01 97 1016.8
20260904130504 79 194 0.0 1.0 0.00 1.66 0.01 97 1016.9
20260904130016 78 193 0.0 1.0 0.00 1.66 0.01 97 1016.8
20260904125506 78 194 0.0 0.0 0.00 1.66 0.01 1016.7
20260904125009 78 194 0.0 0.0 0.00 1.66 0.01 1016.5
20260904124523 78 194 0.0 0.0 0.00 1.66 0.01 1016.5
20260904124009 77 194 0.0 0.0 0.00 1.66 0.01 1016.5
20260904123514 77 194 0.0 1.0 0.00 1.66 0.01 1016.5
20260904123010 77 194 0.0 1.0 0.00 1.66 0.01 1016.5
20260904122509 77 188 0.0 0.0 0.00 1.66 0.01 96 1016.4
20260904122012 76 171 0.0 0.0 0.00 1.66 0.01 96 1016.4
20260904121508 76 171 0.0 0.0 0.00 1.66 0.01 96 1016.4
20260904121010 76 184 0.0 0.0 0.00 1.66 0.01 96 1016.2
20260904120503 76 169 0.0 0.0 0.00 1.66 0.01 96 1016.2
20260904120012 76 169 0.0 0.0 0.00 1.66 0.01 96 1016.2
20260904115503 75 169 0.0 0.0 0.00 1.66 0.01 96 1016.2
20260904115007 75 169 0.0 0.0 0.00 1.66 0.01 96 1016.0
20260904114516 75 169 0.0 0.0 0.00 1.66 0.01 96 1016.1
20260904114008 74 169 0.0 0.0 0.00 1.66 0.01 96 1016.1
20260904113507 74 168 0.0 0.0 0.00 1.66 0.01 96 1016.0
20260904113030 74 168 0.0 0.0 0.00 1.66 0.01 96 1015.9
20260904112512 74 168 0.0 0.0 0.00 1.66 0.01 96 1015.8
20260904112003 74 168 0.0 0.0 0.00 1.66 0.01 96 1015.8
20260904111518 74 168 0.0 0.0 0.00 1.66 0.01 96 1015.8
20260904111011 74 169 0.0 0.0 0.00 1.66 0.01 95 1015.8
20260904110516 74 168 0.0 0.0 0.00 1.66 0.01 95 1015.8
20260904110019 74 168 0.0 0.0 0.00 1.66 0.01 95 1015.8
20260904105504 74 169 0.0 0.0 0.00 1.66 0.01 95 1015.6
20260904105004 74 169 0.0 0.0 0.00 1.66 0.01 95 1015.6
20260904104514 74 168 0.0 0.0 0.00 1.66 0.01 95 1015.6
20260904104009 74 168 0.0 0.0 0.00 1.66 0.01 95 1015.7
20260904103508 74 169 0.0 0.0 0.00 1.66 0.01 95 1015.7
20260904103026 74 168 0.0 0.0 0.00 1.66 0.01 95 1015.7
20260904102507 74 169 0.0 0.0 0.00 1.66 0.01 95 1015.5
20260904102010 74 168 0.0 0.0 0.00 1.66 0.01 95 1015.4
20260904101527 74 168 0.0 0.0 0.00 1.66 0.01 95 1015.3
20260904101004 74 168 0.0 0.0 0.00 1.66 0.01 95 1015.2
20260904100512 74 168 0.0 0.0 0.00 1.66 0.01 95 1015.2
20260904100030 74 168 0.0 0.0 0.00 1.66 0.01 95 1015.2
20260904095517 74 168 0.0 0.0 0.00 1.66 0.01 95 1015.1
20260904095007 74 168 0.0 0.0 0.00 1.66 0.01 95 1015.1
20260904094526 74 168 0.0 0.0 0.00 1.66 0.01 95 1015.0
20260904094003 74 168 0.0 0.0 0.00 1.66 0.01 95 1014.9
20260904093507 74 168 0.0 0.0 0.00 1.66 0.01 95 1014.9
20260904093048 74 169 0.0 0.0 0.00 1.66 0.01 95 1014.9
20260904092506 74 168 0.0 0.0 0.00 1.66 0.01 95 1015.0
20260904092011 74 169 0.0 0.0 0.00 1.66 0.01 95 1015.0